Flag for Germany Weather past 2 weeks in Weyhe, Lower Saxony, Germany

Now
37 °F

Clear.


Feels Like: 34 °F
Forecast: 43 / 50 °F
Wind: 5 mph from West

Location: Bremen Airport

Current Time: Mar 28, 2015 at 3:25:54 AM

Latest Report: Mar 28, 2015 at 2:50 AM


Visibility: 10 mi

Pressure: 30.15 "Hg

Humidity: 100%

Dew point: 37 °F

Location of WeyheLocation

Historic Weather in Weyhe — Graph

°F

Weyhe temperature yesterday

Maximum temperature yesterday: 46 °F (at 3:50 PM)
Minimum temperature yesterday: 39 °F (at 10:20 PM)
Average temperature yesterday: 43 °F

Past Weeks' High & Low Weather Summary

 TemperatureHumidityPressure
High61 °F (Mar 17, 3:50 PM)100% (Mar 19, 12:20 AM)30.45 "Hg (Mar 19, 12:20 AM)
Low28 °F (Mar 23, 5:20 AM)29% (Mar 19, 2:50 PM)29.65 "Hg (Mar 25, 1:50 PM)
Average43 °F78%30.14 "Hg
* Reported Mar 13 2:20 AM — Mar 28 2:20 AM, Weyhe, Weather by CustomWeather, © 2015

Note: Actual official high and low records may vary slightly from our data, if they occured in-between our weather recording intervals... More about our weather records

Advertising

Weyhe weather history for previous 24 hours

 ConditionsComfort  
Time TempWeatherWind HumidityBarometerVisibility
2:20 AM
Sat, Mar 28
41 °FPassing clouds.5 mph93%30.15 "HgN/A
1:50 AM41 °FPassing clouds.5 mph93%30.15 "HgN/A
1:20 AM41 °FPassing clouds.5 mph93%30.15 "HgN/A
12:50 AM41 °FPassing clouds.5 mph87%30.15 "HgN/A
12:20 AM41 °FPassing clouds.7 mph87%30.15 "HgN/A
11:50 PM
Fri, Mar 27
41 °FPassing clouds.8 mph87%30.15 "HgN/A
11:20 PM41 °FPassing clouds.8 mph93%30.12 "HgN/A
10:50 PM39 °FPassing clouds.8 mph93%30.12 "HgN/A
10:20 PM39 °FPassing clouds.10 mph93%30.12 "HgN/A
9:50 PM41 °FPassing clouds.12 mph87%30.12 "HgN/A
9:20 PM43 °FPassing clouds.13 mph81%30.12 "HgN/A
8:50 PM43 °FPassing clouds.14 mph81%30.09 "HgN/A
8:20 PM43 °FPartly cloudy.12 mph87%30.09 "Hg4 mi
7:50 PM43 °FPassing clouds.18 mph93%30.07 "Hg3 mi
7:20 PM43 °FPassing clouds.16 mph93%30.07 "Hg2 mi
6:50 PM43 °FPassing clouds.14 mph93%30.04 "Hg4 mi
6:20 PM43 °FDrizzle. Partly sunny.15 mph93%30.01 "Hg3 mi
5:50 PM45 °FDrizzle. Broken clouds.13 mph87%30.01 "HgN/A
5:20 PM45 °FPartly sunny.14 mph87%29.98 "HgN/A
4:50 PM45 °FPartly sunny.18 mph81%29.98 "HgN/A
4:20 PM46 °FBroken clouds.14 mph82%29.95 "HgN/A
3:50 PM46 °FBroken clouds.16 mph82%29.92 "HgN/A
3:20 PM45 °FScattered showers. Broken clouds.18 mph87%29.92 "HgN/A
2:50 PM45 °FSprinkles. Broken clouds.22 mph87%29.89 "HgN/A
2:20 PM45 °FLight rain. Partly sunny.15 mph93%29.89 "HgN/A
1:50 PM45 °FLight rain. Partly sunny.16 mph93%29.86 "HgN/A
1:20 PM45 °FLight rain. Partly sunny.16 mph93%29.86 "HgN/A
12:50 PM43 °FLight rain. Broken clouds.15 mph93%29.86 "Hg5 mi
12:20 PM45 °FLight rain. Broken clouds.10 mph87%29.86 "HgN/A
11:50 AM43 °FSprinkles. Broken clouds.16 mph87%29.86 "HgN/A
11:20 AM45 °FScattered showers. Broken clouds.10 mph87%29.83 "HgN/A
10:50 AM43 °FSprinkles. Partly sunny.14 mph81%29.83 "HgN/A
10:20 AM45 °FSprinkles. Partly sunny.9 mph87%29.83 "HgN/A
9:50 AM43 °FSprinkles. Partly sunny.14 mph93%29.80 "HgN/A
9:20 AM43 °FLight rain. Broken clouds.13 mph93%29.80 "Hg6 mi
8:50 AM45 °FPartly sunny.17 mph81%29.80 "HgN/A
8:20 AM45 °FBroken clouds.15 mph81%29.77 "HgN/A
7:50 AM43 °FBroken clouds.14 mph87%29.77 "HgN/A
7:20 AM43 °FBroken clouds.12 mph87%29.77 "HgN/A
6:50 AM43 °FPartly sunny.13 mph87%29.74 "HgN/A
6:20 AM43 °FBroken clouds.12 mph87%29.74 "HgN/A
5:50 AM43 °FPassing clouds.10 mph87%29.74 "HgN/A
5:20 AM43 °FPassing clouds.8 mph87%29.74 "HgN/A
4:50 AM41 °FPassing clouds.12 mph87%29.71 "HgN/A
4:20 AM43 °FLight rain. Overcast.13 mph93%29.71 "Hg5 mi
3:50 AM43 °FLight rain. Overcast.10 mph93%29.71 "Hg5 mi
3:20 AM43 °FOvercast.9 mph93%29.71 "Hg6 mi
Weather by CustomWeather, © 2015

See weather overviewHow to use our weather pages